ZHONGXING-11

Last updated on Sun Apr 12 2026 00:02:53 GMT+0000 (Coordinated Universal Time)

1 39157U 13020A 26101.75400328 -.00000289 00000+0 00000+0 0 9998 2 39157 0.0452 50.3505 0001472 2.2193 156.7465 1.00273572 47234
UTC large
Height (km)
Speed (km/s)
/
Latitude / Longitude
Inclination (degrees)
Orbital Period (minutes)
Azimuth
Elevation
Range (km)
Doppler Factor

Next 0 passes for location: London (51.5072 / 0.1276)

Sorry there are no passes over London.
ZHONGXING-11